User: anonymous
Location: Unspecified
(0.0000°N, 0.0000°E)
Time: 03:48:53
(UTC+02:00)
Language:

Ariane H10 - Orbit

View from above orbital plane
View from above orbital plane
View from above satellite
View from above satellite

Ground track
Ground track

The orbit data is extracted from the following two-line orbital elements,

1 19622U 88098B   14108.51097027  .00017723  00000-0  33307-2 0  7275
2 19622 003.9345 222.6738 6493431 144.4300 348.6376 03.33261368264972
Epoch (UTC): 18 April 2014 12:15:47
Eccentricity: 0.6493431
inclination: 3.9345°
perigee height: 261 km
apogee height: 24848 km
right ascension of ascending node: 222.6738°
argument of perigee: 144.4300°
revolutions per day: 3.33261368
mean anomaly at epoch: 348.6376°
orbit number at epoch: 26497

The dashed part of the orbit path shows where the satellite is in the earth's shadow,  

DLR